TimePDT,TemperatureF,Dew PointF,Humidity,Sea Level PressureIn,VisibilityMPH,Wind Direction,Wind SpeedMPH,Gust SpeedMPH,PrecipitationIn,Events,Conditions,WindDirDegrees,DateUTC
12:56 AM,93.0,37.9,15,29.70,10.0,WSW,8.1,-,N/A,,Partly Cloudy,240,2013-08-05 07:56:00
1:56 AM,91.0,34.0,13,29.70,10.0,WSW,3.5,-,N/A,,Partly Cloudy,250,2013-08-05 08:56:00
2:56 AM,91.9,30.0,11,29.70,10.0,Calm,Calm,-,N/A,,Clear,0,2013-08-05 09:56:00
3:56 AM,89.1,30.9,12,29.71,10.0,WSW,10.4,-,N/A,,Clear,240,2013-08-05 10:56:00
4:56 AM,87.1,32.0,14,29.72,10.0,South,3.5,-,N/A,,Clear,170,2013-08-05 11:56:00
5:56 AM,86.0,30.9,14,29.74,10.0,NW,5.8,-,N/A,,Clear,310,2013-08-05 12:56:00
6:56 AM,90.0,33.1,13,29.75,10.0,Variable,3.5,-,N/A,,Clear,0,2013-08-05 13:56:00
7:56 AM,91.0,34.0,13,29.77,10.0,ESE,3.5,-,N/A,,Clear,120,2013-08-05 14:56:00
8:56 AM,95.0,37.9,14,29.77,10.0,Calm,Calm,-,N/A,,Clear,0,2013-08-05 15:56:00
9:56 AM,100.0,37.9,12,29.77,10.0,Variable,3.5,-,N/A,,Clear,0,2013-08-05 16:56:00
10:56 AM,102.9,39.9,12,29.76,10.0,East,8.1,-,N/A,,Clear,100,2013-08-05 17:56:00
11:56 AM,108.0,37.9,9,29.75,10.0,SW,13.8,23.0,N/A,,Clear,230,2013-08-05 18:56:00
12:56 PM,108.0,34.0,8,29.74,10.0,SW,15.0,20.7,N/A,,Clear,230,2013-08-05 19:56:00
1:56 PM,109.0,36.0,8,29.73,10.0,SSW,15.0,23.0,N/A,,Clear,210,2013-08-05 20:56:00
2:56 PM,107.1,37.0,9,29.70,10.0,South,15.0,23.0,N/A,,Clear,180,2013-08-05 21:56:00
3:56 PM,109.0,41.0,10,29.68,10.0,South,13.8,24.2,N/A,,Clear,170,2013-08-05 22:56:00
4:56 PM,107.1,48.0,14,29.66,10.0,SW,18.4,25.3,N/A,,Clear,230,2013-08-05 23:56:00
5:56 PM,106.0,45.0,13,29.66,10.0,SW,8.1,-,N/A,,Clear,220,2013-08-06 00:56:00
6:56 PM,102.9,55.0,20,29.66,10.0,South,15.0,25.3,N/A,,Clear,190,2013-08-06 01:56:00
7:56 PM,100.9,55.9,22,29.68,10.0,SSW,17.3,24.2,N/A,,Clear,200,2013-08-06 02:56:00
8:56 PM,99.0,55.0,23,29.69,10.0,SSW,17.3,-,N/A,,Clear,210,2013-08-06 03:56:00
9:56 PM,98.1,57.0,25,29.69,10.0,SSW,15.0,25.3,N/A,,Clear,210,2013-08-06 04:56:00
10:56 PM,97.0,52.0,22,29.70,10.0,SW,15.0,23.0,N/A,,Clear,220,2013-08-06 05:56:00
11:56 PM,95.0,46.0,19,29.70,10.0,SSW,16.1,21.9,N/A,,Clear,210,2013-08-06 06:56:00